CST,Max TemperatureF,Mean TemperatureF,Min TemperatureF,Max Dew PointF,MeanDew PointF,Min DewpointF,Max Humidity, Mean Humidity, Min Humidity, Max Sea Level PressureIn, Mean Sea Level PressureIn, Min Sea Level PressureIn, Max VisibilityMiles, Mean VisibilityMiles, Min VisibilityMiles, Max Wind SpeedMPH, Mean Wind SpeedMPH, Max Gust SpeedMPH,PrecipitationIn, CloudCover, Events, WindDirDegrees
2011-11-1,73,57,41,39,34,30,70,48,25,30.10,30.03,29.95,10,10,10,17,8,23,0.00,0,,142
2011-11-2,68,55,42,45,38,34,82,51,30,30.04,29.99,29.94,10,10,7,25,11,31,0.03,6,Rain,181
2011-11-3,46,42,37,41,38,32,87,80,66,30.22,30.02,29.85,10,8,2,31,22,43,1.03,6,Rain,2
2011-11-4,55,42,30,37,32,28,93,69,38,30.33,30.25,30.20,10,10,10,10,7,,0.00,0,,51
2011-11-5,59,48,37,43,37,32,81,68,55,30.20,30.09,29.96,10,10,10,17,8,25,0.00,0,,123
2011-11-6,62,54,46,50,46,39,81,69,59,30.09,29.98,29.94,10,10,10,23,12,31,0.00,5,,155
2011-11-7,55,55,55,46,46,46,72,72,72,30.11,30.11,30.10,10,10,10,4,4,,0.00,8,,220
2011-11-8,46,46,46,43,43,43,87,87,87,29.97,29.91,29.81,5,3,2,16,12,20,0.00,8,Rain,23
2011-11-9,46,41,36,45,36,29,93,79,59,30.08,29.87,29.56,10,9,2,30,16,39,0.01,5,Rain-Snow,280
2011-11-10,42,38,33,29,27,25,75,67,56,30.11,30.08,30.05,10,10,10,20,12,26,0.00,5,,250
2011-11-11,54,42,29,33,28,23,83,63,37,30.08,29.88,29.75,10,10,10,17,6,25,0.00,0,,166
2011-11-12,63,50,36,46,34,29,81,56,28,29.79,29.68,29.52,10,10,10,17,9,25,0.00,0,,160
2011-11-13,74,60,47,51,38,23,75,51,15,29.65,29.47,29.36,10,10,10,34,16,45,0.00,0,,204
2011-11-14,59,50,41,38,35,32,76,58,40,29.76,29.63,29.57,10,10,10,10,3,,0.00,2,,140
2011-11-15,68,51,34,39,30,17,87,52,14,29.96,29.77,29.69,10,10,10,20,6,26,0.00,0,,220
2011-11-16,45,36,26,21,14,4,69,43,19,30.21,30.12,29.96,10,10,10,22,11,28,0.00,1,,294
2011-11-17,45,35,25,16,12,7,64,42,21,30.30,30.22,30.15,10,10,10,17,9,23,0.00,0,,225
2011-11-18,58,44,31,19,15,7,50,31,13,30.15,29.96,29.81,10,10,10,30,14,37,0.00,0,,159
2011-11-19,60,50,41,48,34,20,75,51,39,30.03,29.79,29.67,10,10,10,22,11,31,0.00,6,,158
2011-11-20,43,40,36,35,32,29,80,72,65,30.30,30.22,30.04,10,10,10,17,11,25,0.00,8,Rain,344
2011-11-21,52,44,35,39,36,31,86,71,57,30.27,30.20,30.11,10,10,7,16,9,20,0.00,5,,51
2011-11-22,45,44,42,41,39,38,88,84,76,30.11,29.99,29.87,7,3,1,16,9,20,0.00,8,Rain,354
2011-11-23,50,41,32,42,37,30,94,84,60,30.26,30.20,30.10,7,4,0,14,6,,0.00,6,Fog-Snow,216
2011-11-24,60,52,44,44,42,40,89,75,54,30.23,30.14,30.02,10,8,3,20,11,24,0.00,4,,167
2011-11-25,61,52,43,44,41,38,81,65,50,30.02,29.91,29.82,10,10,10,23,13,28,0.00,0,,164
2011-11-26,57,49,41,53,44,36,89,79,57,29.92,29.84,29.78,10,7,2,21,12,28,0.00,8,Rain,232
2011-11-27,41,38,36,36,31,28,81,75,68,30.16,30.05,29.90,10,10,10,18,13,26,0.00,8,,313
2011-11-28,37,34,30,29,27,26,85,75,68,30.17,30.09,29.95,10,10,7,20,10,22,0.00,7,,354
2011-11-29,43,35,27,30,25,19,82,67,41,30.10,30.02,29.93,10,10,10,25,15,33,0.00,1,,326
2011-11-30,44,32,20,23,18,9,80,58,25,30.15,30.10,30.07,10,10,10,9,6,,0.00,0,,208